Change the Weather History Date:

Wednesday, December 26, 2012

  Actual Average Record
Temperature  
Mean Temperature 6 °F -  
Max Temperature 12 °F 16 °F 46 °F (2011)
Min Temperature 0 °F -4 °F -37 °F (1990)
Degree Days  
Heating Degree Days 59    
Moisture  
Dew Point -2 °F    
Average Humidity 73    
Maximum Humidity 80    
Minimum Humidity 62    
Precipitation  
Precipitation 0.00 in - - ()
Sea Level Pressure  
Sea Level Pressure 30.39 in    
Wind  
Wind Speed 1 mph (NNW)    
Max Wind Speed 5 mph    
Max Gust Speed -    
Visibility 9 miles    
Events Snow    
Averages and records for this station are not official NWS values.
T = Trace of Precipitation, MM = Missing Value Source: NWS Daily Summary

Daily Weather History Graph

Daily Weather History Graph

Search for Another Location

Airport or City:

Trip Planner

Search our weather history database for the weather conditions in past years. The results will help you decide how hot, cold, wet, or windy it might be!

Date:

Astronomy

Dec. 26, 2012 Rise Set
Actual Time 7:59 AM CST 4:35 PM CST
Civil Twilight 7:24 AM CST 5:10 PM CST
Nautical Twilight 6:45 AM CST 5:48 PM CST
Astronomical Twilight 6:09 AM CST 6:25 PM CST
Moon 3:31 PM CST (12/26) 6:21 AM CST (12/26)
Length of Visible Light 9h 46m
Length of Day
8h 36m
Waxing Gibbous, 97% of the Moon is Illuminated
Dec 26
Waxing Gibbous
Dec 28
Full
Jan 4
Last Quarter
Jan 11
New
Jan 18
First Quarter

Hourly Weather History & Observations

Time (CST) Temp. Windchill Dew Point Humidity Pressure Visibility Wind Dir Wind Speed Gust Speed Precip Events Conditions
12:53 AM -0.0 °F -7.9 °F -7.1 °F 72% 30.48 in 10.0 mi WNW 3.5 mph - N/A   Clear
1:53 AM -0.0 °F -7.9 °F -7.1 °F 72% 30.46 in 10.0 mi North 3.5 mph - N/A   Clear
2:53 AM -0.0 °F - -6.0 °F 76% 30.45 in 10.0 mi Calm Calm - N/A   Overcast
3:53 AM 1.0 °F - -6.0 °F 72% 30.45 in 10.0 mi Calm Calm - N/A   Overcast
4:53 AM 1.0 °F - -5.1 °F 75% 30.45 in 10.0 mi Calm Calm - N/A   Overcast
5:53 AM 1.9 °F - -5.1 °F 72% 30.44 in 9.0 mi Calm Calm - N/A   Overcast
6:53 AM 1.9 °F - -4.0 °F 76% 30.43 in 6.0 mi Calm Calm - 0.00 in Snow Light Snow
7:10 AM 1.4 °F - -4.0 °F 78% 30.32 in 2.5 mi Calm Calm - 0.00 in Snow Light Snow
7:18 AM 1.4 °F - -4.0 °F 78% 30.33 in 4.0 mi Calm Calm - 0.00 in Snow Light Snow
7:53 AM 3.0 °F - -4.0 °F 73% 30.43 in 4.0 mi Calm Calm - 0.00 in Snow Light Snow
8:53 AM 1.9 °F - -4.0 °F 76% 30.43 in 5.0 mi Calm Calm - 0.00 in   Haze
9:53 AM 3.9 °F - -2.9 °F 73% 30.42 in 7.0 mi Calm Calm - N/A   Scattered Clouds
10:53 AM 6.1 °F - -2.0 °F 69% 30.41 in 10.0 mi Calm Calm - N/A   Partly Cloudy
11:53 AM 8.1 °F 1.4 °F -0.0 °F 70% 30.39 in 10.0 mi NNW 3.5 mph - N/A   Clear
12:53 PM 10.9 °F 2.9 °F 1.0 °F 64% 30.37 in 10.0 mi NNW 4.6 mph - N/A   Overcast
1:53 PM 12.9 °F - 1.9 °F 62% 30.36 in 10.0 mi Calm Calm - N/A   Clear
3:53 PM 12.0 °F 4.1 °F 3.0 °F 67% 30.35 in 10.0 mi NW 4.6 mph - N/A   Partly Cloudy
4:53 PM 8.1 °F 1.4 °F -0.0 °F 70% 30.35 in 10.0 mi North 3.5 mph - N/A   Partly Cloudy
6:53 PM 8.1 °F - 1.9 °F 76% 30.34 in 10.0 mi Calm Calm - N/A   Overcast
7:53 PM 6.1 °F - 1.0 °F 80% 30.35 in 10.0 mi Calm Calm - N/A   Mostly Cloudy
8:53 PM 5.0 °F - -0.0 °F 80% 30.34 in 10.0 mi Calm Calm - N/A   Overcast
9:53 PM 5.0 °F - -0.9 °F 76% 30.34 in 10.0 mi Calm Calm - N/A   Overcast
10:53 PM 7.0 °F - 1.9 °F 80% 30.33 in 10.0 mi Calm Calm - N/A   Overcast
11:53 PM 9.0 °F - 1.9 °F 73% 30.32 in 10.0 mi Calm Calm - N/A   Overcast